This demonstration page uses our WeatherBlox Daily Observations layout. Learn more.

Left ArrowRight Arrow

Hourly Observations for August 21, 2016

Temp ( °F °C ) Dew Point ( °F °C ) Humidity (%) Winds ( mph kmh ) Pressure ( in mb ) Visibility ( mi km ) Precip ( " mm )
12:14 am 00:14 Cloudy 68 20 66 19 94 94 NW 9 15 29.8 1009 4 6.43736 N/A
12:34 am 00:34 Cloudy 68 20 66 19 94 94 WNW 8 13 29.8 1009 10 16.0934 N/A
12:54 am 00:54 Cloudy 68 20 66 19 94 94 WNW 8 13 29.8 1009 10 16.0934 N/A
1:14 am 01:14 Cloudy 68 20 66 19 94 94 WNW 7 11 29.8 1009 10 16.0934 N/A
1:34 am 01:34 Cloudy 68 20 66 19 94 94 NW 6 9 29.8 1009 10 16.0934 N/A
1:54 am 01:54 Cloudy 68 20 64 18 88 88 WNW 5 7 29.8 1009 10 16.0934 N/A
2:14 am 02:14 Mostly Cloudy 66 19 64 18 94 94 W 5 7 29.8 1009 10 16.0934 N/A
2:34 am 02:34 Partly Cloudy 64 18 64 18 100 100 W 5 7 29.83 1010 10 16.0934 N/A
2:54 am 02:54 Clear 64 18 63 17 94 94 W 5 7 29.83 1010 10 16.0934 N/A
3:14 am 03:14 Clear 64 18 63 17 94 94 W 5 7 29.83 1010 10 16.0934 N/A
3:34 am 03:34 Clear 64 18 63 17 94 94 W 5 7 29.85 1011 10 16.0934 N/A
3:53 am 03:53 Clear 64 18 63 17 94 94 W 6 9 29.85 1011 10 16.0934 N/A
4:14 am 04:14 Clear 64 18 63 17 94 94 W 6 9 29.85 1011 10 16.0934 N/A
4:34 am 04:34 Clear 63 17 63 17 100 100 W 6 9 29.85 1011 10 16.0934 N/A
4:54 am 04:54 Clear 63 17 63 17 100 100 WNW 6 9 29.85 1011 10 16.0934 N/A
5:14 am 05:14 Clear 63 17 61 16 94 94 WNW 6 9 29.88 1012 10 16.0934 N/A
5:34 am 05:34 Clear 63 17 61 16 94 94 WNW 6 9 29.88 1012 10 16.0934 N/A
5:54 am 05:54 Clear 61 16 61 16 100 100 W 6 9 29.88 1012 10 16.0934 N/A
6:14 am 06:14 Clear 61 16 61 16 100 100 W 5 7 29.88 1012 10 16.0934 N/A
6:34 am 06:34 Clear 61 16 59 15 94 94 W 3 6 29.88 1012 10 16.0934 N/A
6:54 am 06:54 Clear 59 15 59 15 100 100 W 5 7 29.91 1013 10 16.0934 N/A
7:14 am 07:14 Sunny 59 15 59 15 100 100 W 5 7 29.91 1013 10 16.0934 N/A
7:34 am 07:34 Sunny 59 15 59 15 100 100 W 5 7 29.91 1013 10 16.0934 N/A
7:54 am 07:54 Sunny 61 16 61 16 100 100 W 5 7 29.91 1013 10 16.0934 N/A
8:14 am 08:14 Sunny 63 17 61 16 94 94 W 5 7 29.94 1014 10 16.0934 N/A
8:34 am 08:34 Sunny 64 18 61 16 88 88 W 7 11 29.94 1014 10 16.0934 N/A
8:54 am 08:54 Sunny 64 18 61 16 88 88 WNW 7 11 29.94 1014 10 16.0934 N/A
9:14 am 09:14 Sunny 66 19 59 15 78 78 W 8 13 29.94 1014 10 16.0934 N/A
9:34 am 09:34 Sunny 66 19 59 15 78 78 WNW 6 9 29.94 1014 10 16.0934 N/A
9:54 am 09:54 Sunny 68 20 59 15 73 73 WNW 7 11 29.97 1015 10 16.0934 N/A
10:14 am 10:14 Sunny 68 20 61 16 78 78 W 6 9 29.97 1015 10 16.0934 N/A
10:34 am 10:34 Sunny 70 21 59 15 69 69 W 9 15 29.94 1014 10 16.0934 N/A
10:54 am 10:54 Sunny 70 21 61 16 73 73 W 8 13 29.94 1014 10 16.0934 N/A
11:13 am 11:13 Sunny 72 22 61 16 69 69 W 13 20 29.94 1014 10 16.0934 N/A
11:34 am 11:34 Sunny 72 22 59 15 65 65 WNW 13 20 29.94 1014 10 16.0934 N/A
11:54 am 11:54 Partly Cloudy 73 23 59 15 61 61 W 13 20 29.97 1015 10 16.0934 N/A
12:14 pm 12:14 Partly Cloudy 73 23 59 15 61 61 WNW 12 19 29.97 1015 10 16.0934 N/A
12:34 pm 12:34 Partly Cloudy 73 23 59 15 61 61 W 9 15 29.97 1015 10 16.0934 N/A
12:54 pm 12:54 Partly Cloudy 73 23 59 15 61 61 W 13 20 29.97 1015 10 16.0934 N/A
1:14 pm 13:14 Partly Cloudy 73 23 59 15 61 61 WNW 9 15 29.97 1015 10 16.0934 N/A
1:34 pm 13:34 Partly Cloudy 75 24 59 15 57 57 W 17 28 29.97 1015 10 16.0934 N/A
1:54 pm 13:54 Partly Cloudy 75 24 57 14 54 54 W 13 20 29.97 1015 10 16.0934 N/A
2:14 pm 14:14 Partly Cloudy 73 23 57 14 57 57 W 12 19 29.97 1015 10 16.0934 N/A
2:34 pm 14:34 Partly Cloudy 75 24 59 15 57 57 W 13 20 29.97 1015 10 16.0934 N/A
2:54 pm 14:54 Partly Cloudy 77 25 57 14 51 51 WNW 13 20 29.97 1015 10 16.0934 N/A
3:14 pm 15:14 Partly Cloudy 77 25 59 15 54 54 WNW 16 26 29.97 1015 10 16.0934 N/A
3:34 pm 15:34 Partly Cloudy 77 25 59 15 54 54 W 16 26 29.97 1015 10 16.0934 N/A
3:53 pm 15:53 Partly Cloudy 77 25 57 14 51 51 W 17 28 29.97 1015 10 16.0934 N/A
4:14 pm 16:14 Partly Cloudy 75 24 57 14 54 54 WNW 14 22 29.97 1015 10 16.0934 N/A
4:34 pm 16:34 Partly Cloudy 75 24 57 14 54 54 W 15 24 29.97 1015 10 16.0934 N/A
4:54 pm 16:54 Partly Cloudy 75 24 57 14 54 54 WNW 14 22 29.97 1015 10 16.0934 N/A
5:14 pm 17:14 Partly Cloudy 77 25 55 13 47 47 WNW 16 26 30 1016 10 16.0934 N/A
5:34 pm 17:34 Partly Cloudy 75 24 55 13 50 50 WNW 12 19 30 1016 10 16.0934 N/A
5:54 pm 17:54 Partly Cloudy 75 24 57 14 54 54 NW 13 20 30 1016 10 16.0934 N/A
6:14 pm 18:14 Partly Cloudy 75 24 55 13 50 50 NW 12 19 30 1016 10 16.0934 N/A
6:34 pm 18:34 Partly Cloudy 75 24 55 13 50 50 WNW 10 17 30 1016 10 16.0934 N/A
6:54 pm 18:54 Partly Cloudy 73 23 57 14 57 57 NW 13 20 30 1016 10 16.0934 N/A
7:14 pm 19:14 Sunny 72 22 55 13 57 57 NW 9 15 30 1016 10 16.0934 N/A
7:34 pm 19:34 Sunny 72 22 55 13 57 57 NW 8 13 30.03 1017 10 16.0934 N/A
7:54 pm 19:54 Sunny 70 21 55 13 60 60 NNW 10 17 30.06 1018 10 16.0934 N/A
8:14 pm 20:14 Sunny 68 20 57 14 69 69 WNW 7 11 30.06 1018 10 16.0934 N/A
8:34 pm 20:34 Clear 66 19 55 13 68 68 NW 6 9 30.06 1018 10 16.0934 N/A
8:54 pm 20:54 Clear 66 19 57 14 73 73 NW 3 6 30.06 1018 10 16.0934 N/A
9:14 pm 21:14 Clear 63 17 57 14 83 83 Calm 30.06 1018 10 16.0934 N/A
9:34 pm 21:34 Clear 61 16 59 15 94 94 Calm 30.09 1019 10 16.0934 N/A
9:54 pm 21:54 Clear 59 15 57 14 94 94 W 3 6 30.09 1019 10 16.0934 N/A
10:14 pm 22:14 Clear 61 16 57 14 88 88 W 3 6 30.09 1019 10 16.0934 N/A
10:33 pm 22:33 Clear 61 16 57 14 88 88 Calm 30.09 1019 10 16.0934 N/A
10:54 pm 22:54 Clear 61 16 57 14 88 88 W 3 6 30.12 1020 10 16.0934 N/A
11:14 pm 23:14 Clear 59 15 57 14 94 94 Calm 30.12 1020 10 16.0934 N/A
11:34 pm 23:34 Clear 59 15 57 14 94 94 Calm 30.12 1020 10 16.0934 N/A
11:54 pm 23:54 Clear 57 14 55 13 94 94 Calm 30.12 1020 10 16.0934 N/A

Powered by AerisWeather